Regional Weather Roundup
Issued by NWS

Home | Current Version | Previous Version | Graphics & Text | Print | Product List | Glossary On
Versions: 1 2 3 4 5 6 7 8 9 10 11 12 13 14 15 16 17 18 19 20 21 22 23 24 25 26 27 28 29 30 31 32 33 34 35 36 37 38 39 40 41 42 43 44 45 46 47 48 49 50
713
ASUS45 KPSR 240110
RWRAZ

ARIZONA HOURLY REGIONAL WEATHER ROUNDUP
NATIONAL WEATHER SERVICE PHOENIX AZ
600 PM MST MON MAY 23 2016

NOTE: FAIR INDICATES FEW OR NO CLOUDS BELOW 12,000 FEET WITH NO
SIGNIFICANT WEATHER AND/OR OBSTRUCTIONS TO VISIBILITY.

AZZ001>003-036-240200-
NORTHWEST ARIZONA

CITY           SKY/WX    TMP DP  RH WIND       PRES   REMARKS
BULLHEAD CITY  SUNNY     88  25  10 S15       29.67F
KINGMAN        SUNNY     76  19  11 S22       29.79F
$$

AZZ004>008-015-016-018-240200-
NORTH CENTRAL ARIZONA

CITY           SKY/WX    TMP DP  RH WIND       PRES   REMARKS
GRAND CANYON   SUNNY     66  12  12 SW22G30   29.93S
WILLIAMS       SUNNY     63  14  15 S17G26    30.02F
PRESCOTT       SUNNY     69  21  16 SW16      29.90F
FLAGSTAFF      SUNNY     60  16  18 SW20G28   29.97F
PAYSON         SUNNY     70  12  11 SW8G17    29.94F
PAGE           SUNNY     78  14   9 NE7       29.75F
$$

AZZ009>014-017-240200-
NORTHEAST ARIZONA

CITY           SKY/WX    TMP DP  RH WIND       PRES   REMARKS
WINSLOW        SUNNY     75  13   9 SW16      29.86S
SAINT JOHNS    SUNNY     73  23  15 SW15G22   29.90S
WINDOW ROCK    SUNNY     70  13  11 SW17      29.94S
SHOW LOW       SUNNY     66  19  16 SW21G28   29.97S
$$

AZZ023-240200-
GREATER PHOENIX AREA

CITY           SKY/WX    TMP DP  RH WIND       PRES   REMARKS
PHOENIX        SUNNY     88  25  10 W6        29.70F
BUCKEYE        SUNNY     86  21   9 S3        29.72F
GLENDALE       SUNNY     90  21   8 SW9       29.72F
LUKE AFB       SUNNY     88  23   9 W8        29.70S
DEER VALLEY    SUNNY     84  26  12 W7        29.73F
SCOTTSDALE     SUNNY     85  22  10 CALM      29.74F
MESA-FALCON    SUNNY    N/A N/A N/A W9        29.70F
MESA-GATEWAY   SUNNY     88  27  11 W8        29.73F
CHANDLER       SUNNY     88  21   8 W10       29.71F
$$

AZZ027-028-240200-
SOUTHWEST MARICOPA COUNTY AND PINAL COUNTY

CITY           SKY/WX    TMP DP  RH WIND       PRES   REMARKS
CASA GRANDE    SUNNY     88  27  11 W7        29.73F
GILA BEND      FAIR      90  24   9 SW12      29.69F
$$

AZZ503-504-507>509-240200-
SOUTHEAST ARIZONA

CITY           SKY/WX    TMP DP  RH WIND       PRES   REMARKS
TUCSON         SUNNY     87  24  10 W12G22    29.80S
DAVIS-MONTHAN  SUNNY     86  25  10 W17G23    29.78F
NOGALES        SUNNY     82  26  13 S15G26    29.88S
SIERRA VISTA   SUNNY     80  20  11 SW16G24   29.92S
DOUGLAS        SUNNY     83  12   7 SW20G28   29.87S
SAFFORD        SUNNY     89  19   7 W18G24    29.75F
$$

AZZ020-021-025-026-031-240200-
SOUTHWEST ARIZONA

CITY           SKY/WX    TMP DP  RH WIND       PRES   REMARKS
YUMA           SUNNY     87  26  11 W8        29.70F
$$

CAZ031-033-041-043-047-048-061-240200-
SOUTHERN CALIFORNIA

CITY           SKY/WX    TMP DP  RH WIND       PRES   REMARKS
DOWNTOWN L.A.  SUNNY     68  53  58 VRB7      29.87S
L.A. AIRPORT   MOSUNNY   63  54  72 W16       29.88S
SAN DIEGO      PTSUNNY   63  49  60 SW10      29.94F
BURBANK        SUNNY     68  48  48 SE8       29.85F
ONTARIO        MOSUNNY   68  47  46 SW14      29.85S
RIVERSIDE      MOSUNNY   70  45  40 W13G18    29.84F
PALM SPRINGS   SUNNY     84  40  21 NW17      29.70F
EL CENTRO NAS  SUNNY     85  32  15 W25       29.71F
IMPERIAL       SUNNY     85  37  18 W18       29.68F
BLYTHE         SUNNY     88  23   9 S14       29.68F
NEEDLES        SUNNY     89  26  10 S17G25    29.66F
$$

NVZ020-UTZ003-240200-
SOUTHERN NEVADA-UTAH

CITY           SKY/WX    TMP DP  RH WIND       PRES   REMARKS
LAS VEGAS      MOSUNNY   80  21  11 SW17      29.65F
SALT LAKE CITY PTSUNNY   69  26  20 N7        29.81F
$$

NMZ009-TXZ055-240200-
NEW MEXICO-WEST TEXAS

CITY           SKY/WX    TMP DP  RH WIND       PRES   REMARKS
ALBUQUERQUE    MOSUNNY   82  11   7 SW17      29.82S
EL PASO        FAIR      90   9   5 W20G26    29.79F
$$


........................KEY........................
SKY/WX - SKY CONDITION/WEATHER
TMP    - TEMPERATURE IN FAHRENHEIT
DP     - DEW POINT IN FAHRENHEIT
RH     - RELATIVE HUMIDITY IN PERCENT
WIND   - DIRECTION AND SPEED IN MILES PER HOUR (MPH)
VRB    - VARIABLE WIND DIRECTION
PRES   - MEAN SEA LEVEL PRESSURE IN INCHES OF MERCURY
         F - FALLING PRESSURE   R - RISING PRESSURE
         S - STEADY PRESSURE
VSB    - VISIBILITY IN MILES
HX     - HEAT INDEX IN FAHRENHEIT
WCI    - WIND CHILL INDEX IN FAHRENHEIT
TC     - TEMPERATURE IN CELSIUS WHICH IS ALSO KNOWN AS
         TEMPERATURE IN CENTIGRADE
AFB    - AIR FORCE BASE
         LUKE AFB IS LUKE AIR FORCE BASE
         DAVIS-MONTHAN IS DAVIS-MONTHAN AIR FORCE BASE
NAS    - NAVAL AIR STATION
         EL CENTRO NAS IS EL CENTRO NAVAL AIR STATION
N/A    - NOT AVAILABLE





USA.gov is the U.S. government's official web portal to all federal, state and local government web resources and services.